Location: ???????
(54.9996°N, 37.9529°E)
Time: 03:18:22
(UTC+00:00)

Cosmos 2056 Rocket - Pass Details

Date: 14 April 2024
Orbit: 739 x 799 km, 74.0° (Epoch: 20 May)

Event Time Altitude Azimuth Distance (km) Brightness Sun altitude
Rises 00:31:08 0° 332° (NNW) 3,281 7.0 -15.1°
Reaches altitude 10° 00:33:32 10° 335° (NNW) 2,358 6.2 -14.8°
Maximum altitude 00:38:54 72° 60° (ENE) 836 3.8 -14.2°
Drops below altitude 10° 00:44:18 10° 145° (SE) 2,368 6.0 -13.6°
Sets 00:46:43 0° 148° (SSE) 3,297 6.7 -13.4°
